Weather History for Millinocket, ME

Change the Weather History Date:

Monday, November 4, 2013

  Actual Average Record
Temperature  
Mean Temperature 32 °F 39 °F  
Max Temperature 41 °F 47 °F 68 °F (1903)
Min Temperature 22 °F 31 °F 11 °F (2002)
Degree Days  
Heating Degree Days 33 26  
Month to date heating degree days 88 102  
Since 1 July heating degree days 838 1036  
Cooling Degree Days 0 0  
Month to date cooling degree days 0 0  
Year to date cooling degree days 380 268  
Moisture  
Dew Point 16 °F    
Average Humidity 59    
Maximum Humidity 84    
Minimum Humidity 34    
Precipitation  
Precipitation 0.00 in 0.13 in 3.73 in (1927)
Month to date precipitation 0.83 0.52  
Year to date precipitation 32.46 35.24  
Sea Level Pressure  
Sea Level Pressure 30.63 in    
Wind  
Wind Speed 5 mph (NNW)    
Max Wind Speed 18 mph    
Max Gust Speed 24 mph    
Visibility 9 miles    
Events      
T = Trace of Precipitation, MM = Missing Value Source: NWS Daily Summary

Daily Weather History Graph

Daily Weather History Graph

Search for Another Location

Airport:

Trip Planner

Search our weather history database for the weather conditions in past years. The results will help you decide how hot, cold, wet, or windy it might be!

Date:

Astronomy

Nov. 04, 2013 Rise Set
Actual Time 6:19 AM EST 4:16 PM EST
Civil Twilight 5:47 AM EST 4:48 PM EST
Nautical Twilight 5:12 AM EST 5:23 PM EST
Astronomical Twilight 4:37 AM EST 5:58 PM EST
Moon 7:28 AM EST (11/4) 5:15 PM EST (11/4)
Length of Visible Light 11h 00m
Length of Day
9h 57m
New Moon, 2% of the Moon is Illuminated
Nov 4
New Moon
Nov 10
First Quarter
Nov 17
Full
Nov 25
Last Quarter
Dec 2
New

Hourly Weather History & Observations

Time (EST) Temp. Windchill Dew Point Humidity Pressure Visibility Wind Dir Wind Speed Gust Speed Precip Events Conditions
12:53 AM 30.0 °F 25.2 °F 12.9 °F 49% 30.45 in 10.0 mi NNW 4.6 mph - N/A   Clear
1:53 AM 28.0 °F 24.2 °F 12.9 °F 53% 30.47 in 10.0 mi NNW 3.5 mph - N/A   Clear
2:53 AM 28.0 °F 22.8 °F 12.9 °F 53% 30.49 in 10.0 mi NNW 4.6 mph - N/A   Clear
3:53 AM 26.1 °F 21.9 °F 12.9 °F 58% 30.52 in 10.0 mi WNW 3.5 mph - N/A   Clear
4:53 AM 27.0 °F 20.5 °F 14.0 °F 58% 30.55 in 10.0 mi NNW 5.8 mph - N/A   Clear
5:53 AM 28.0 °F 22.8 °F 12.9 °F 53% 30.58 in 10.0 mi NNW 4.6 mph - N/A   Clear
6:53 AM 28.0 °F 21.7 °F 15.1 °F 58% 30.61 in 10.0 mi North 5.8 mph - N/A   Clear
7:53 AM 30.9 °F 24.3 °F 15.1 °F 52% 30.63 in 10.0 mi North 6.9 mph - N/A   Clear
8:53 AM 32.0 °F 21.6 °F 15.1 °F 50% 30.63 in 10.0 mi North 15.0 mph 24.2 mph N/A   Clear
9:53 AM 34.0 °F 25.5 °F 15.1 °F 46% 30.65 in 10.0 mi North 11.5 mph 17.3 mph N/A   Clear
10:53 AM 36.0 °F 30.3 °F 15.1 °F 43% 30.64 in 10.0 mi Variable 6.9 mph - N/A   Clear
11:53 AM 37.9 °F 32.7 °F 15.1 °F 39% 30.63 in 10.0 mi North 6.9 mph - N/A   Clear
12:53 PM 39.0 °F 34.0 °F 15.1 °F 38% 30.63 in 10.0 mi North 6.9 mph - N/A   Clear
1:53 PM 39.9 °F 35.8 °F 14.0 °F 35% 30.64 in 10.0 mi Variable 5.8 mph - N/A   Clear
2:53 PM 39.9 °F 35.8 °F 14.0 °F 35% 30.66 in 10.0 mi North 5.8 mph - N/A   Clear
3:53 PM 37.9 °F 33.5 °F 14.0 °F 38% 30.66 in 10.0 mi North 5.8 mph - N/A   Clear
4:53 PM 33.1 °F 30.0 °F 17.1 °F 52% 30.68 in 10.0 mi NNE 3.5 mph - N/A   Clear
5:53 PM 28.9 °F - 17.1 °F 61% 30.69 in 10.0 mi Calm Calm - N/A   Clear
6:53 PM 28.0 °F - 19.0 °F 69% 30.70 in 10.0 mi Calm Calm - N/A   Clear
7:53 PM 26.1 °F - 19.9 °F 78% 30.71 in 4.0 mi Calm Calm - N/A   Haze
8:53 PM 25.0 °F - 19.0 °F 78% 30.73 in 7.0 mi Calm Calm - N/A   Clear
9:53 PM 24.1 °F - 19.0 °F 81% 30.73 in 6.0 mi Calm Calm - N/A   Haze
10:53 PM 21.9 °F 17.2 °F 18.0 °F 85% 30.73 in 7.0 mi NW 3.5 mph - N/A   Clear
11:53 PM 21.9 °F - 18.0 °F 85% 30.74 in 6.0 mi Calm Calm - N/A   Clear